User: anonymous   Login
Location: Unspecified
(0.0000°N, 0.0000°E)
Time: 07:48:42
(UTC+02:00)
Language:

Cosmos 1703 - Orbit

View from above orbital plane
View from above orbital plane
View from above satellite
View from above satellite

Ground track
Ground track

The orbit data is extracted from the following two-line orbital elements,

1 16262U 85108A   15208.10978015  .00000542  00000-0  32711-4 0  9995
2 16262 082.4895 207.7612 0009156 113.4416 246.7776 15.08626164614639
Epoch (UTC): 27 July 2015 02:38:05
Eccentricity: 0.0009156
inclination: 82.4895°
perigee height: 534 km
apogee height: 547 km
right ascension of ascending node: 207.7612°
argument of perigee: 113.4416°
revolutions per day: 15.08626164
mean anomaly at epoch: 246.7776°
orbit number at epoch: 61463

The dashed part of the orbit path shows where the satellite is in the earth's shadow,  

DLR